[[{"header":{"parameterUnit":"m.s-1","parameterCategory":1,"la1":30.2991,"la2":30.254,"lo1":-89.0895,"lo2":-89.0444,"dy":0.0017,"dx":0.0017,"nx":28,"ny":28,"refTime":"2025-07-19T09:00:00:Z","depth":0,"parameterNumber":2,"parameterNumberName":"U-component_of_WINDS"},"data":[0,0,0,0,0,0,0,0,0,0,0,0,0,0,0,0,0,0,0,0,0,0,0,0,0,0,0,0,0,0,0,0,0,0,0,0,0,0,0,0,0,0,0,0,0,0,0,0,0,0,0,0,0,0,0,0,0,0,0.6835,0.6836,0,0.6926,0.6927,0.6928,0.6976,0.6977,0.6977,0.6977,0.7072,0.7075,0.7077,0,0,0,0,0,0,0,0,0,0,0,0,0,0.6704,0.6706,0.6835,0.6836,0.6837,0.6926,0.6927,0.6929,0.6976,0.6977,0.6977,0.6977,0.7071,0.7074,0.7077,0,0,0,0,0,0,0,0,0,0,0,0,0,0.6775,0.6707,0.6835,0.6872,0.6876,0.6926,0.6927,0.6929,0.6976,0.6977,0.6977,0.6977,0.707,0.7074,0.7078,0.7098,0,0,0.7089,0.7091,0,0,0,0,0,0,0,0,0.6771,0.678,0.6865,0.6869,0.6874,0.694,0.6916,0.6986,0.6976,0.6938,0.6977,0.6977,0.7028,0.7036,0.7052,0.7103,0.7107,0.7089,0.7092,0.7093,0.7094,0,0,0,0,0,0,0,0.6766,0.6776,0.6871,0.6866,0.6872,0.6885,0.6895,0.693,0.6982,0.6942,0.6945,0.6955,0.7031,0.7049,0.7055,0.7108,0.7089,0.7093,0.7095,0.7096,0.718,0.718,0,0,0,0,0,0,0.6755,0.6771,0.6868,0.6874,0.6822,0.6887,0.6898,0.6919,0.6981,0.6991,0.6955,0.6957,0.7042,0.7051,0.7059,0.7087,0.7093,0.7097,0.7099,0.718,0.718,0.718,0,0,0,0,0,0,0.6752,0.6763,0.6865,0.6824,0.6838,0.6889,0.6912,0.6921,0.6939,0.6992,0.7001,0.6964,0.7043,0.7053,0.7088,0.7091,0.7098,0.7102,0.718,0.718,0.718,0.7143,0,0,0,0,0,0,0.6748,0.6761,0.6769,0.6824,0.684,0.6892,0.6912,0.6922,0.6945,0.6948,0.7002,0.7011,0.7044,0.7082,0.7092,0.7096,0.7105,0.718,0.718,0.718,0.7145,0.7142,0.714,0,0,0,0,0,0.6743,0.6756,0.6769,0.6781,0.6851,0.6892,0.6901,0.6937,0.6945,0.6953,0.6987,0.701,0.7089,0.7085,0.7096,0.7102,0.718,0.718,0.718,0.7146,0.7143,0.714,0,0,0,0,0,0,0.6701,0.6764,0.6779,0.681,0.6845,0.69,0.6912,0.6933,0.6967,0.6969,0.7014,0.7025,0.7056,0.7083,0.7077,0.7125,0.7137,0.7139,0.7107,0.7104,0.7102,0.7095,0.7108,0,0,0,0,0,0.6695,0.6723,0.6777,0.6799,0.6815,0.686,0.688,0.6905,0.6943,0.6958,0.6995,0.7032,0.7065,0.7086,0.712,0.7149,0.7161,0.7158,0.7156,0.7153,0.7155,0.7172,0.7171,0.718,0.718,0.718,0,0,0.6684,0.6722,0.6737,0.6791,0.6821,0.6849,0.6873,0.6902,0.6923,0.6963,0.6998,0.7026,0.707,0.7102,0.7117,0.7125,0.7155,0.7154,0.7151,0.7154,0.7172,0.7171,0.717,0.718,0.718,0.718,0,0,0.6678,0.6709,0.6731,0.676,0.6805,0.6835,0.684,0.6892,0.6912,0.6947,0.6978,0.7004,0.7061,0.7091,0.7114,0.7118,0.714,0.7128,0.7116,0.7133,0.7132,0.7132,0.7133,0.7133,0.7129,0.7129,0.7129,0,0.6659,0.6702,0.674,0.6767,0.679,0.6826,0.6849,0.6876,0.693,0.6945,0.6952,0.7024,0.7056,0.7095,0.7096,0.7114,0.7121,0.7122,0.7129,0.7129,0.7129,0.7131,0.7132,0.7128,0.7128,0.7128,0.7128,0,0.6676,0.6705,0.6718,0.6768,0.6792,0.6817,0.6859,0.6879,0.6902,0.6931,0.6967,0.7007,0.7049,0.706,0.7083,0.7103,0.7106,0.712,0.7133,0.7126,0.7129,0.713,0.7125,0.7126,0.7126,0.7127,0,0,0.6646,0.6717,0.672,0.6744,0.6796,0.682,0.6846,0.6887,0.6904,0.694,0.6963,0.701,0.7023,0.7049,0.7076,0.709,0.7091,0.7103,0.7105,0.7099,0.7116,0.7104,0.7105,0.7106,0.7106,0.7106,0.7112,0,0.6647,0.6696,0.6731,0.6766,0.6794,0.6829,0.6852,0.6887,0.6915,0.6943,0.6975,0.7007,0.7022,0.7038,0.7054,0.7088,0.7095,0.7088,0.7129,0.713,0.7116,0.7106,0.7094,0.7097,0.7113,0.7113,0.7114,0,0.6655,0.6689,0.6727,0.6777,0.679,0.681,0.685,0.6876,0.6916,0.6936,0.6964,0.6991,0.7021,0.7031,0.7073,0.7067,0.7086,0.7105,0.7106,0.7111,0.7121,0.7111,0.7099,0.71,0.7116,0.7116,0.7115,0,0.663,0.6685,0.6715,0.6734,0.6792,0.6806,0.6831,0.6871,0.6893,0.6928,0.6943,0.6981,0.7002,0.7032,0.7068,0.7072,0.7107,0.712,0.7124,0.7123,0.713,0.7129,0.7121,0.7142,0.7142,0.7142,0.7142,0,0.6628,0.665,0.6705,0.6723,0.6749,0.6788,0.6813,0.6841,0.6876,0.6901,0.6934,0.6957,0.7004,0.7032,0.7061,0.7092,0.7101,0.7118,0.7125,0.7115,0.7113,0.7128,0.7129,0.7142,0.7142,0.7142,0.7142,0,0.6603,0.6641,0.6676,0.6728,0.6742,0.6758,0.6803,0.6823,0.6852,0.6883,0.6893,0.6939,0.6975,0.7014,0.7063,0.7082,0.7111,0.7122,0.7097,0.7101,0.7103,0.7103,0.7105,0.7107,0.7126,0.7126,0.7126,0,0.6599,0.6617,0.6671,0.6689,0.6713,0.6743,0.6766,0.6806,0.6828,0.6875,0.6889,0.6926,0.6959,0.7013,0.7052,0.7089,0.7101,0.71,0.7107,0.7096,0.7101,0.71,0.7102,0.7097,0.7097,0.7097,0.7096,0,0.6588,0.6606,0.6637,0.6675,0.6701,0.6732,0.6765,0.6779,0.6826,0.6849,0.6885,0.691,0.6959,0.6996,0.7038,0.7065,0.7088,0.7094,0.7097,0.7086,0.7071,0.7079,0.7091,0.7093,0.7094,0.7094,0.7094,0.7094,0.6574,0.6592,0.6632,0.6666,0.6694,0.6725,0.6745,0.6777,0.6808,0.6851,0.6873,0.6908,0.6949,0.7007,0.7033,0.7062,0.707,0.7074,0.7075,0.7075,0.7072,0.7066,0.707,0.707,0.707,0.707,0.707,0,0.6565,0.6593,0.6623,0.6668,0.6694,0.6714,0.6751,0.6772,0.6803,0.6838,0.6869,0.6911,0.6947,0.6988,0.7026,0.7042,0.7053,0.7051,0.705,0.7055,0.7064,0.7057,0.704,0.704,0.704,0.704,0.704,0.704,0.6563,0.6593,0.6616,0.666,0.6688,0.6723,0.6743,0.6771,0.6799,0.6844,0.6874,0.69,0.6938,0.698,0.7014,0.7025,0.7038,0.7031,0.7046,0.7052,0.7055,0.7057,0.7051,0.7034,0.7034,0.7035,0.7035,0.7035]},{"header":{"parameterUnit":"m.s-1","parameterCategory":1,"la1":30.2991,"la2":30.254,"lo1":-89.0895,"lo2":-89.0444,"dy":0.0017,"dx":0.0017,"nx":28,"ny":28,"refTime":"2025-07-19T09:00:00:Z","depth":0,"parameterNumber":3,"parameterNumberName":"V-component_of_WINDS"},"data":[0,0,0,0,0,0,0,0,0,0,0,0,0,0,0,0,0,0,0,0,0,0,0,0,0,0,0,0,0,0,0,0,0,0,0,0,0,0,0,0,0,0,0,0,0,0,0,0,0,0,0,0,0,0,0,0,0,0,3.2428,3.2428,0,3.242,3.242,3.242,3.2433,3.2433,3.2434,3.2434,3.2423,3.2422,3.2421,0,0,0,0,0,0,0,0,0,0,0,0,0,3.245,3.245,3.2428,3.2428,3.2428,3.242,3.242,3.242,3.2433,3.2433,3.2434,3.2434,3.2423,3.2422,3.2421,0,0,0,0,0,0,0,0,0,0,0,0,0,3.2441,3.245,3.2428,3.2433,3.2434,3.242,3.242,3.242,3.2433,3.2433,3.2434,3.2435,3.2423,3.2422,3.2421,3.2401,0,0,3.2418,3.2417,0,0,0,0,0,0,0,0,3.2442,3.244,3.2432,3.2433,3.2433,3.2428,3.2424,3.2413,3.2432,3.2433,3.2434,3.2435,3.2424,3.2423,3.242,3.2401,3.24,3.2418,3.2417,3.2417,3.2416,0,0,0,0,0,0,0,3.2442,3.2441,3.2425,3.2432,3.2433,3.2435,3.2434,3.2422,3.2424,3.2433,3.2434,3.2433,3.2424,3.2421,3.242,3.24,3.2418,3.2417,3.2416,3.2416,3.2363,3.2363,0,0,0,0,0,0,3.2443,3.2441,3.2425,3.2424,3.2439,3.2434,3.2433,3.2429,3.2425,3.2425,3.2432,3.2434,3.2422,3.2421,3.2419,3.2395,3.2417,3.2416,3.2415,3.2364,3.2363,3.2362,0,0,0,0,0,0,3.2443,3.2441,3.2425,3.2433,3.2431,3.2433,3.2428,3.2429,3.2425,3.2424,3.2425,3.2429,3.2423,3.2421,3.2406,3.2395,3.2415,3.2414,3.2365,3.2364,3.2363,3.2347,0,0,0,0,0,0,3.2444,3.2441,3.2434,3.2433,3.2431,3.2413,3.2427,3.2428,3.2424,3.2425,3.2421,3.2421,3.2423,3.2407,3.2405,3.2394,3.2413,3.2366,3.2364,3.2363,3.2348,3.2345,3.2343,0,0,0,0,0,3.2445,3.2429,3.2434,3.2432,3.2422,3.2412,3.2411,3.2415,3.2423,3.2415,3.2415,3.2421,3.2397,3.2406,3.2403,3.2391,3.2367,3.2365,3.2363,3.2349,3.2346,3.2343,0,0,0,0,0,0,3.2428,3.2429,3.2434,3.2419,3.2415,3.2414,3.2405,3.2411,3.2404,3.2406,3.241,3.2409,3.2392,3.239,3.24,3.2371,3.2383,3.238,3.2373,3.237,3.2367,3.2368,3.2412,0,0,0,0,0,3.2423,3.2416,3.2417,3.2403,3.2401,3.2403,3.2399,3.2402,3.2399,3.2397,3.2395,3.239,3.2382,3.2376,3.2368,3.2348,3.2347,3.2339,3.2336,3.2334,3.2332,3.2321,3.2317,3.2357,3.2357,3.2357,0,0,3.2412,3.2412,3.2406,3.2399,3.2397,3.2388,3.2402,3.2392,3.2385,3.2395,3.2381,3.238,3.2374,3.2357,3.2349,3.2355,3.232,3.2332,3.233,3.2329,3.2319,3.2315,3.2311,3.2356,3.2356,3.2356,0,0,3.2387,3.2386,3.2375,3.2372,3.2369,3.2371,3.2368,3.2367,3.2366,3.2353,3.236,3.2351,3.2336,3.2332,3.2328,3.2302,3.2307,3.2299,3.2284,3.2273,3.227,3.2268,3.2258,3.2254,3.2297,3.2297,3.2297,0,3.2373,3.2361,3.2367,3.2357,3.2354,3.2363,3.2351,3.2348,3.2342,3.2339,3.2345,3.2327,3.2324,3.2306,3.2299,3.2296,3.2292,3.2299,3.2271,3.2268,3.2265,3.2256,3.2252,3.2296,3.2296,3.2296,3.2296,0,3.2344,3.2336,3.2326,3.2322,3.2317,3.2306,3.2309,3.2303,3.2307,3.2308,3.2293,3.229,3.2282,3.2278,3.2281,3.226,3.2263,3.227,3.2281,3.226,3.2252,3.2248,3.2295,3.2295,3.2295,3.2295,0,0,3.2308,3.2308,3.2304,3.2302,3.2299,3.2292,3.2281,3.2274,3.2269,3.2264,3.2254,3.2242,3.2248,3.2244,3.2246,3.2237,3.2216,3.2245,3.2245,3.2239,3.2192,3.2186,3.2182,3.222,3.2219,3.2218,3.2192,0,3.2283,3.2265,3.227,3.2252,3.2244,3.2253,3.2243,3.224,3.224,3.2232,3.2232,3.2223,3.2233,3.223,3.2221,3.222,3.2206,3.2222,3.2209,3.2209,3.221,3.2177,3.2171,3.2146,3.2188,3.2188,3.2187,0,3.2251,3.2247,3.2228,3.2227,3.2224,3.2215,3.2209,3.2202,3.2198,3.2199,3.2194,3.2199,3.2186,3.2198,3.2181,3.2192,3.2187,3.2186,3.2185,3.2183,3.2196,3.2174,3.2139,3.2135,3.2182,3.2183,3.2183,0,3.2226,3.2216,3.2203,3.2201,3.2199,3.2193,3.2192,3.2189,3.2184,3.2178,3.2175,3.2168,3.2163,3.2157,3.2159,3.2167,3.2141,3.2153,3.214,3.214,3.2133,3.2134,3.2096,3.2131,3.2131,3.2131,3.2131,0,3.2198,3.2185,3.2192,3.2184,3.217,3.2176,3.2162,3.2161,3.2159,3.215,3.2157,3.2149,3.2153,3.2144,3.2145,3.213,3.2128,3.2128,3.2128,3.2127,3.2127,3.2123,3.2125,3.213,3.213,3.2131,3.2131,0,3.2167,3.2171,3.2158,3.2158,3.2158,3.2147,3.2147,3.2139,3.214,3.2129,3.2127,3.2128,3.2118,3.212,3.2109,3.211,3.2091,3.2094,3.2093,3.2093,3.208,3.2081,3.2038,3.2032,3.2072,3.2071,3.2071,0,3.2148,3.2139,3.2139,3.2134,3.2133,3.2125,3.2121,3.2126,3.2121,3.2116,3.2108,3.21,3.2093,3.2076,3.2076,3.2067,3.2069,3.2055,3.2068,3.2067,3.2068,3.2069,3.2067,3.2052,3.2051,3.2051,3.2051,0,3.2114,3.2117,3.2111,3.2105,3.21,3.2096,3.2092,3.2087,3.2092,3.2086,3.2077,3.2071,3.2061,3.2051,3.2043,3.2041,3.2046,3.2047,3.2043,3.2041,3.2041,3.2041,3.2085,3.2048,3.2048,3.2048,3.2048,3.2048,3.2089,3.2081,3.208,3.2073,3.2071,3.2067,3.206,3.206,3.2053,3.2046,3.2049,3.2038,3.2034,3.2024,3.2021,3.2012,3.2017,3.2012,3.201,3.2009,3.2007,3.2043,3.201,3.201,3.201,3.201,3.201,0,3.2054,3.2054,3.2048,3.2043,3.2037,3.2044,3.204,3.2035,3.2026,3.2022,3.2016,3.2005,3.1996,3.1995,3.1986,3.1979,3.1981,3.1976,3.1976,3.1976,3.2003,3.2007,3.1975,3.1975,3.1975,3.1975,3.1975,3.1975,3.2036,3.2024,3.2026,3.2012,3.2012,3.2002,3.1999,3.1996,3.1993,3.1981,3.1974,3.1974,3.1971,3.1962,3.1954,3.1954,3.195,3.1944,3.1945,3.197,3.1974,3.1977,3.1981,3.1943,3.1943,3.1918,3.1918,3.1918]}]]